[[{"header":{"parameterUnit":"m.s-1","parameterCategory":1,"la1":30.2991,"la2":30.254,"lo1":-89.0895,"lo2":-89.0444,"dy":0.0017,"dx":0.0017,"nx":28,"ny":28,"refTime":"2025-06-22T09:00:00:Z","depth":0,"parameterNumber":2,"parameterNumberName":"U-component_of_WINDS"},"data":[0,0,0,0,0,0,0,0,0,0,0,0,0,0,0,0,0,0,0,0,0,0,0,0,0,0,0,0,0,0,0,0,0,0,0,0,0,0,0,0,0,0,0,0,0,0,0,0,0,0,0,0,0,0,0,0,0,0,-1.9817,-1.9816,0,-1.9795,-1.9795,-1.9795,-1.9734,-1.9733,-1.9731,-1.973,-1.9709,-1.971,-1.9711,0,0,0,0,0,0,0,0,0,0,0,0,0,-1.9807,-1.9808,-1.9817,-1.9816,-1.9816,-1.9795,-1.9795,-1.9795,-1.9734,-1.9733,-1.9731,-1.9729,-1.9709,-1.971,-1.9711,0,0,0,0,0,0,0,0,0,0,0,0,0,-1.9801,-1.9808,-1.9817,-1.9783,-1.978,-1.9795,-1.9795,-1.9794,-1.9735,-1.9733,-1.9731,-1.9729,-1.9709,-1.971,-1.9711,-1.9757,0,0,-1.9714,-1.9714,0,0,0,0,0,0,0,0,-1.9802,-1.9802,-1.9789,-1.9786,-1.9782,-1.9765,-1.9784,-1.9782,-1.9735,-1.9752,-1.973,-1.9728,-1.973,-1.9729,-1.9729,-1.9756,-1.9755,-1.9714,-1.9715,-1.9715,-1.9715,0,0,0,0,0,0,0,-1.9802,-1.9802,-1.9808,-1.9788,-1.9785,-1.977,-1.9767,-1.9783,-1.9752,-1.975,-1.9746,-1.9744,-1.9727,-1.9728,-1.9728,-1.9755,-1.9714,-1.9715,-1.9716,-1.9716,-1.9818,-1.982,0,0,0,0,0,0,-1.9807,-1.9803,-1.9809,-1.9807,-1.9787,-1.9772,-1.9769,-1.9773,-1.9752,-1.9747,-1.9746,-1.9741,-1.9728,-1.9727,-1.9727,-1.9779,-1.9715,-1.9716,-1.9717,-1.9816,-1.9818,-1.9821,0,0,0,0,0,0,-1.9807,-1.9808,-1.981,-1.9804,-1.9803,-1.9774,-1.9779,-1.9773,-1.9774,-1.9748,-1.9743,-1.9752,-1.9726,-1.9726,-1.975,-1.9777,-1.9717,-1.9717,-1.9813,-1.9817,-1.9819,-1.9883,0,0,0,0,0,0,-1.9807,-1.9809,-1.9825,-1.9805,-1.9804,-1.9832,-1.9781,-1.9774,-1.9776,-1.977,-1.9753,-1.9748,-1.9724,-1.9749,-1.9751,-1.9777,-1.9718,-1.9811,-1.9815,-1.9818,-1.9878,-1.9887,-1.9896,0,0,0,0,0,-1.9807,-1.9844,-1.9826,-1.9827,-1.9824,-1.9834,-1.9833,-1.9804,-1.9778,-1.9795,-1.9779,-1.9749,-1.9775,-1.9752,-1.9753,-1.9781,-1.9809,-1.9814,-1.9818,-1.9874,-1.9886,-1.9896,0,0,0,0,0,0,-1.9868,-1.9841,-1.9821,-1.9852,-1.9846,-1.9823,-1.9843,-1.9818,-1.9819,-1.9813,-1.9779,-1.9775,-1.9804,-1.9795,-1.977,-1.9824,-1.9787,-1.9792,-1.9828,-1.9839,-1.9848,-1.9849,-1.9719,0,0,0,0,0,-1.9886,-1.9895,-1.9871,-1.9901,-1.9899,-1.9872,-1.9875,-1.9854,-1.9846,-1.9843,-1.9829,-1.9823,-1.9829,-1.9834,-1.9839,-1.9877,-1.9872,-1.9897,-1.9906,-1.9914,-1.9918,-1.9937,-1.9948,-1.9836,-1.9836,-1.9836,0,0,-1.9921,-1.9907,-1.9915,-1.9913,-1.9906,-1.9917,-1.987,-1.9884,-1.9892,-1.9846,-1.9866,-1.9856,-1.9847,-1.9878,-1.9891,-1.9872,-1.9948,-1.992,-1.9926,-1.9926,-1.9943,-1.9954,-1.9963,-1.9839,-1.9839,-1.9838,0,0,-1.9991,-1.9982,-2.0005,-1.9999,-1.9989,-1.9971,-1.9977,-1.9959,-1.995,-1.997,-1.9936,-1.9946,-1.9958,-1.9953,-1.9952,-2.0022,-1.9994,-2.0025,-2.007,-2.0089,-2.0098,-2.0106,-2.0129,-2.0138,-2.003,-2.003,-2.003,0,-2.0036,-2.0051,-2.0021,-2.0037,-2.0037,-1.9996,-2.002,-2.0016,-2.0008,-2.0009,-1.9987,-2.0002,-1.9993,-2.0022,-2.0039,-2.0041,-2.0046,-2.0025,-2.0099,-2.0107,-2.0113,-2.0135,-2.0145,-2.0033,-2.0033,-2.0033,-2.0032,0,-2.0106,-2.0118,-2.0139,-2.0131,-2.0134,-2.0154,-2.0128,-2.0135,-2.0114,-2.0099,-2.0121,-2.0109,-2.0111,-2.0117,-2.0097,-2.0143,-2.0131,-2.0106,-2.0066,-2.0128,-2.0148,-2.0157,-2.0039,-2.0037,-2.0036,-2.0035,0,0,-2.0211,-2.0188,-2.0196,-2.0192,-2.0179,-2.0187,-2.0206,-2.0207,-2.0213,-2.021,-2.0225,-2.0237,-2.0213,-2.0212,-2.0192,-2.0209,-2.0264,-2.0181,-2.018,-2.0195,-2.0313,-2.0331,-2.0341,-2.0247,-2.0248,-2.025,-2.0313,0,-2.0276,-2.0305,-2.028,-2.0315,-2.0324,-2.0287,-2.0303,-2.0297,-2.0284,-2.0291,-2.0277,-2.0286,-2.0254,-2.0253,-2.0269,-2.0254,-2.0287,-2.0249,-2.0259,-2.026,-2.026,-2.0352,-2.0371,-2.0431,-2.0321,-2.0323,-2.0324,0,-2.0354,-2.0353,-2.0389,-2.0373,-2.0377,-2.0392,-2.0391,-2.0399,-2.0392,-2.0381,-2.0381,-2.0356,-2.0374,-2.0339,-2.0363,-2.0338,-2.0341,-2.0335,-2.0336,-2.0334,-2.0294,-2.035,-2.045,-2.0458,-2.0336,-2.0335,-2.0334,0,-2.0424,-2.0433,-2.0455,-2.0454,-2.0437,-2.0448,-2.0442,-2.0433,-2.0435,-2.0435,-2.0437,-2.044,-2.044,-2.0444,-2.0421,-2.0397,-2.0448,-2.041,-2.0438,-2.0439,-2.0448,-2.0448,-2.0548,-2.0455,-2.0455,-2.0455,-2.0454,0,-2.0497,-2.052,-2.0487,-2.05,-2.0525,-2.0497,-2.0523,-2.0512,-2.0505,-2.0516,-2.0485,-2.0496,-2.0466,-2.0475,-2.0458,-2.048,-2.0481,-2.0473,-2.0467,-2.0474,-2.0475,-2.0474,-2.0468,-2.0457,-2.0456,-2.0456,-2.0456,0,-2.0578,-2.0558,-2.0579,-2.0562,-2.0558,-2.0577,-2.0562,-2.0574,-2.056,-2.0575,-2.0577,-2.0554,-2.0563,-2.0541,-2.0547,-2.0535,-2.0566,-2.0556,-2.0568,-2.0564,-2.0593,-2.059,-2.0694,-2.0706,-2.0608,-2.0609,-2.061,0,-2.0625,-2.0641,-2.0626,-2.0631,-2.0626,-2.0635,-2.0638,-2.0612,-2.0616,-2.061,-2.0623,-2.0629,-2.0632,-2.0647,-2.0632,-2.0636,-2.0623,-2.066,-2.0624,-2.063,-2.0622,-2.062,-2.0621,-2.0666,-2.0668,-2.0669,-2.0669,0,-2.0709,-2.0698,-2.0703,-2.0704,-2.0708,-2.0709,-2.0706,-2.0713,-2.0685,-2.0691,-2.0699,-2.0702,-2.0708,-2.0714,-2.0715,-2.0709,-2.0684,-2.0682,-2.0688,-2.0693,-2.0699,-2.0695,-2.0586,-2.0678,-2.0677,-2.0677,-2.0676,-2.0676,-2.0773,-2.0786,-2.0777,-2.0783,-2.078,-2.0779,-2.0789,-2.0777,-2.0783,-2.0785,-2.077,-2.0781,-2.0775,-2.0774,-2.077,-2.0779,-2.0762,-2.0772,-2.0774,-2.0777,-2.078,-2.0701,-2.078,-2.0779,-2.0779,-2.0779,-2.0779,0,-2.0853,-2.0846,-2.0853,-2.0851,-2.0857,-2.0834,-2.0831,-2.0837,-2.0847,-2.0844,-2.0848,-2.0857,-2.0864,-2.085,-2.0854,-2.0864,-2.0852,-2.0865,-2.0863,-2.0862,-2.0796,-2.0789,-2.0874,-2.0874,-2.0874,-2.0874,-2.0874,-2.0874,-2.0896,-2.0916,-2.0905,-2.0923,-2.0916,-2.0927,-2.0927,-2.0926,-2.0923,-2.0935,-2.094,-2.0931,-2.0923,-2.0927,-2.0932,-2.0928,-2.093,-2.0946,-2.0938,-2.0876,-2.0867,-2.0857,-2.0851,-2.0947,-2.0947,-2.1002,-2.1003,-2.1003]},{"header":{"parameterUnit":"m.s-1","parameterCategory":1,"la1":30.2991,"la2":30.254,"lo1":-89.0895,"lo2":-89.0444,"dy":0.0017,"dx":0.0017,"nx":28,"ny":28,"refTime":"2025-06-22T09:00:00:Z","depth":0,"parameterNumber":3,"parameterNumberName":"V-component_of_WINDS"},"data":[0,0,0,0,0,0,0,0,0,0,0,0,0,0,0,0,0,0,0,0,0,0,0,0,0,0,0,0,0,0,0,0,0,0,0,0,0,0,0,0,0,0,0,0,0,0,0,0,0,0,0,0,0,0,0,0,0,0,0.6541,0.6541,0,0.6517,0.6517,0.6517,0.6374,0.637,0.6367,0.6364,0.6349,0.6352,0.6355,0,0,0,0,0,0,0,0,0,0,0,0,0,0.6471,0.6473,0.6541,0.6541,0.654,0.6518,0.6517,0.6517,0.6374,0.637,0.6366,0.6362,0.6348,0.6352,0.6355,0,0,0,0,0,0,0,0,0,0,0,0,0,0.648,0.6473,0.6541,0.6466,0.6459,0.6518,0.6517,0.6517,0.6375,0.637,0.6365,0.636,0.6347,0.6351,0.6356,0.6487,0,0,0.6369,0.6371,0,0,0,0,0,0,0,0,0.648,0.6483,0.6478,0.6472,0.6464,0.6443,0.6487,0.6507,0.6377,0.6408,0.6363,0.6357,0.6385,0.6386,0.6393,0.6486,0.6485,0.6369,0.6372,0.6374,0.6375,0,0,0,0,0,0,0,0.6479,0.6483,0.6532,0.6478,0.6469,0.6437,0.6432,0.649,0.6427,0.6404,0.6394,0.6393,0.6381,0.639,0.6392,0.6485,0.6369,0.6373,0.6375,0.6377,0.6686,0.6691,0,0,0,0,0,0,0.6488,0.6483,0.6533,0.6531,0.6459,0.6442,0.6437,0.6455,0.6425,0.6415,0.6397,0.6386,0.6385,0.6387,0.6391,0.6544,0.6374,0.6378,0.638,0.6681,0.6687,0.6693,0,0,0,0,0,0,0.6487,0.6494,0.6534,0.6504,0.6507,0.6449,0.647,0.6458,0.6466,0.642,0.6408,0.6418,0.6381,0.6385,0.6464,0.6542,0.6379,0.6383,0.6674,0.6683,0.669,0.6852,0,0,0,0,0,0,0.6485,0.6494,0.6542,0.6506,0.6509,0.6605,0.6475,0.6461,0.6473,0.6458,0.6436,0.6427,0.6377,0.6458,0.6468,0.6545,0.6387,0.6667,0.6678,0.6688,0.6839,0.6865,0.6886,0,0,0,0,0,0.6483,0.659,0.6545,0.6551,0.6567,0.6609,0.6611,0.6549,0.648,0.6529,0.6498,0.6428,0.6531,0.6467,0.6477,0.6557,0.6662,0.6675,0.6687,0.6829,0.686,0.6886,0,0,0,0,0,0,0.6639,0.6584,0.6533,0.6631,0.6625,0.6585,0.6645,0.6583,0.66,0.6586,0.651,0.6506,0.6597,0.6584,0.6514,0.6683,0.6584,0.66,0.6689,0.6718,0.6741,0.6744,0.639,0,0,0,0,0,0.6684,0.6721,0.6671,0.6762,0.6762,0.6704,0.672,0.6672,0.6665,0.6663,0.6638,0.6637,0.6669,0.6692,0.6718,0.6835,0.683,0.6895,0.6918,0.6938,0.6954,0.7017,0.7046,0.6735,0.6735,0.6735,0,0,0.6779,0.6753,0.6782,0.6793,0.6783,0.6826,0.6703,0.6753,0.6785,0.6671,0.6744,0.6726,0.672,0.6818,0.6861,0.6811,0.7038,0.6954,0.697,0.6975,0.7033,0.7062,0.7089,0.6744,0.6742,0.6741,0,0,0.6974,0.6957,0.7031,0.7023,0.7009,0.6969,0.6987,0.6956,0.6939,0.7009,0.6925,0.6963,0.7019,0.7018,0.7025,0.7218,0.7156,0.7229,0.7354,0.7417,0.7441,0.7463,0.7535,0.7561,0.7244,0.7244,0.7245,0,0.7096,0.7153,0.7078,0.7134,0.7142,0.7037,0.7114,0.7111,0.7108,0.7117,0.7059,0.7127,0.7115,0.7214,0.7261,0.7269,0.729,0.7233,0.7443,0.7464,0.7483,0.7551,0.7578,0.7254,0.7253,0.7252,0.7251,0,0.7304,0.7345,0.7408,0.7404,0.7419,0.7485,0.7423,0.7448,0.7398,0.7365,0.744,0.7421,0.7443,0.7462,0.7415,0.7554,0.7524,0.7456,0.7356,0.7523,0.7586,0.7611,0.7267,0.7264,0.7261,0.7259,0,0,0.7601,0.7552,0.7577,0.7574,0.7549,0.7582,0.7643,0.7661,0.7685,0.7686,0.7739,0.7787,0.7724,0.7732,0.7683,0.7738,0.7896,0.7663,0.7662,0.771,0.8052,0.8106,0.8137,0.7852,0.7856,0.786,0.8054,0,0.779,0.789,0.7824,0.7937,0.7976,0.7875,0.793,0.7922,0.7893,0.7924,0.7893,0.793,0.7842,0.7846,0.7895,0.7866,0.7964,0.7851,0.7904,0.7907,0.7913,0.817,0.8227,0.8411,0.8077,0.8081,0.8084,0,0.8025,0.8033,0.8149,0.8116,0.813,0.818,0.8192,0.8221,0.8211,0.8186,0.8195,0.8132,0.8194,0.8092,0.8178,0.8102,0.812,0.8109,0.8114,0.8121,0.8009,0.8187,0.8467,0.8497,0.8122,0.8119,0.8116,0,0.8234,0.8274,0.8348,0.8348,0.8312,0.8349,0.8337,0.8321,0.8336,0.8347,0.8356,0.8375,0.8387,0.8404,0.835,0.828,0.8445,0.8337,0.8429,0.8431,0.8472,0.8471,0.8764,0.8477,0.8477,0.8476,0.8476,0,0.8455,0.8531,0.8441,0.8488,0.857,0.8494,0.8579,0.8556,0.8542,0.8585,0.8499,0.8542,0.8465,0.8501,0.8459,0.8538,0.8543,0.8528,0.8516,0.8538,0.854,0.8551,0.8539,0.8483,0.8482,0.848,0.8479,0,0.8705,0.8647,0.8722,0.868,0.8671,0.8734,0.8699,0.8742,0.8706,0.8761,0.877,0.8715,0.8752,0.8698,0.873,0.8702,0.8812,0.8779,0.8815,0.8807,0.8903,0.8897,0.9217,0.9257,0.8941,0.8944,0.8947,0,0.8851,0.8907,0.8869,0.889,0.8881,0.8916,0.893,0.8857,0.8876,0.8868,0.8913,0.8942,0.8962,0.9027,0.8992,0.9017,0.8987,0.9097,0.899,0.9011,0.8993,0.8992,0.8999,0.9121,0.9125,0.9128,0.913,0,0.9119,0.9087,0.9109,0.9122,0.914,0.9147,0.9148,0.9171,0.9094,0.912,0.9155,0.9171,0.9202,0.9234,0.9249,0.9239,0.9175,0.9163,0.9186,0.9211,0.9231,0.9225,0.8879,0.9157,0.9155,0.9153,0.9151,0.915,0.9324,0.9369,0.935,0.9378,0.9369,0.9372,0.9411,0.9378,0.9405,0.9423,0.9378,0.9425,0.9415,0.9428,0.9425,0.9463,0.9415,0.9448,0.9457,0.9468,0.9484,0.9221,0.9465,0.9464,0.9463,0.9462,0.9462,0,0.9591,0.9572,0.9598,0.9601,0.9623,0.9554,0.9552,0.9576,0.9617,0.9611,0.9631,0.9673,0.9703,0.9669,0.9694,0.9731,0.9702,0.974,0.9739,0.9739,0.9523,0.9502,0.9763,0.9763,0.9763,0.9763,0.9763,0.9763,0.9732,0.9806,0.9772,0.9841,0.9822,0.9865,0.987,0.9873,0.9868,0.9917,0.994,0.9916,0.99,0.9922,0.9948,0.9937,0.9952,1.0002,0.9982,0.9783,0.9754,0.9725,0.9706,1.0005,1.0005,1.0195,1.0196,1.0198]}]]